CAPE
0 0 0 0 0 0 0 0 0 0 0 0 0 0 0 0 0 0 0 0 0 0 0 0 0 0 15 66 209 387 639 1098 1242 1248 1181 1003 636 399 268 345 270 355 583 652
0 0 0 0 0 0 0 0 0 0 0 0 0 0 0 0 0 0 0 0 0 0 0 0 0 18 48 180 331 551 975 1214 1276 1215 969 775 659 356 237 222 301 417 386 408
0 0 0 0 0 0 0 0 0 0 0 0 0 0 0 0 0 0 0 0 0 0 0 0 0 14 93 200 309 436 818 1155 1173 1063 753 511 359 342 253 391 503 432 358 473
0 0 0 0 0 0 0 0 0 0 0 0 0 0 0 0 0 0 0 0 0 0 0 0 2 32 139 278 357 549 885 921 825 594 469 489 368 227 196 158 197 410 464 466
0 0 0 0 0 0 0 0 0 0 0 0 0 0 0 0 0 0 0 0 0 0 0 0 0 228 371 426 484 675 775 689 675 443 398 345 235 304 186 193 207 396 515 462
0 0 0 0 0 0 0 0 0 0 0 0 0 0 0 0 0 0 0 0 0 0 0 16 299 427 507 586 610 628 544 466 593 613 404 263 157 222 250 270 252 327 274 222
0 0 0 0 0 0 0 0 0 0 0 0 0 0 0 0 0 0 0 0 0 0 0 205 348 470 545 645 721 652 433 710 371 576 388 339 305 285 324 225 176 289 337 132
2 1 0 0 0 0 0 0 0 0 0 0 0 0 0 0 0 0 0 0 0 0 71 273 436 511 610 749 739 536 668 559 368 370 262 155 251 96 138 248 220 288 114 123
0 0 0 0 0 0 0 0 0 0 0 0 0 0 0 0 0 0 0 0 28 62 254 402 487 535 658 716 641 543 699 558 429 282 169 145 199 316 207 188 190 368 507 479
0 0 0 0 0 0 0 0 0 0 0 0 0 0 0 0 0 0 0 0 173 358 411 465 457 611 657 622 615 620 680 515 400 180 87 99 86 63 64 77 72 260 255 286
21 3 0 0 0 0 0 0 0 0 0 0 0 0 0 0 0 0 0 0 196 334 356 400 481 612 593 558 619 690 607 370 223 79 63 112 26 44 17 18 259 350 289 124
8 7 0 0 0 0 0 0 0 0 0 0 0 0 0 0 0 0 0 0 229 354 433 425 529 569 520 587 624 644 401 149 99 31 116 48 170 52 53 77 113 300 243 235
8 1 0 0 0 2 21 16 1 0 0 0 0 0 0 0 0 0 0 0 381 391 442 455 485 465 470 570 545 451 131 64 42 125 74 86 64 64 61 39 94 62 158 94
16 0 0 0 0 0 0 0 0 0 0 0 0 0 0 0 0 0 0 163 384 425 412 427 390 425 447 484 356 182 44 36 29 145 82 115 60 99 49 12 112 141 16 64
2 0 0 0 0 0 0 0 0 0 0 0 0 0 0 3 10 158 104 364 396 423 405 356 372 426 434 316 141 39 15 33 51 168 140 41 37 26 20 23 36 86 35 44
6 0 0 0 0 0 0 0 0 0 0 0 0 0 67 163 594 603 515 419 422 402 353 291 411 439 424 218 24 0 30 29 42 271 149 40 13 53 25 32 0 46 17 70
2 4 1 0 3 0 0 0 0 0 0 0 0 10 1 5 269 485 558 452 443 371 310 327 447 449 358 87 0 0 17 29 61 234 177 151 37 10 54 20 0 33 38 41
0 0 7 0 2 0 0 0 103 111 77 78 10 13 0 75 65 13 4 256 353 322 322 356 424 417 237 1 0 0 14 13 30 253 141 105 12 1 59 23 18 16 37 20
0 1 0 0 0 0 0 2 3 50 238 142 88 4 0 137 22 0 0 0 60 295 288 345 437 411 104 0 0 0 8 5 0 183 268 154 28 13 16 16 25 10 26 15
0 1 0 0 0 0 0 1 1 5 36 18 0 1 1 0 3 0 0 0 0 123 289 399 455 354 36 0 0 0 10 1 0 31 152 183 44 66 65 13 0 0 0 4
2 0 0 0 18 0 3 1 0 8 1 0 0 0 0 1 4 0 0 0 0 0 372 459 472 352 51 0 0 0 3 0 0 20 46 114 90 65 51 66 20 0 0 1
0 0 0 0 3 1 4 0 4 10 0 5 0 0 0 0 2 8 1 0 0 0 154 564 479 366 76 0 0 0 0 0 0 28 45 185 31 11 46 42 55 0 0 3
0 0 0 0 0 7 4 6 14 2 1 0 0 0 0 0 0 0 4 1 2 26 12 310 619 397 79 0 0 0 0 0 0 12 104 127 47 10 0 3 144 23 0 0
0 0 0 1 3 6 3 7 0 0 0 0 0 0 0 0 0 0 0 0 26 112 119 84 799 471 186 2 0 0 0 0 0 8 148 238 163 65 0 59 177 48 0 0
5 5 0 2 1 0 0 0 0 0 0 0 0 0 0 0 0 0 0 0 8 29 175 332 637 697 337 60 1 0 12 0 0 2 199 415 296 168 23 0 56 108 40 0
6 1 2 4 3 6 0 0 0 0 0 0 0 0 0 0 0 0 0 0 0 17 135 359 504 924 547 173 56 13 3 0 0 0 57 278 342 314 128 0 0 0 15 82
CIN
-0 -0 -0 -0 -0 -0 -0 -0 -0 -0 -0 -0 -0 -0 -0 -0 -0 -0 -0 -0 -0 -0 -0 -0 -0 -0 -133 -127 -115 -165 -210 -270 -280 -285 -257 -234 -245 -297 -295 -203 -172 -116 -49 -33
-0 -0 -0 -0 -0 -0 -0 -0 -0 -0 -0 -0 -0 -0 -0 -0 -0 -0 -0 -0 -0 -0 -0 -0 -0 -87 -131 -156 -207 -231 -260 -298 -315 -286 -274 -253 -229 -264 -218 -178 -153 -96 -68 -37
-0 -0 -0 -0 -0 -0 -0 -0 -0 -0 -0 -0 -0 -0 -0 -0 -0 -0 -0 -0 -0 -0 -0 -0 -0 -97 -174 -188 -272 -299 -332 -315 -299 -271 -269 -265 -263 -210 -167 -129 -92 -77 -46 -36
-0 -0 -0 -0 -0 -0 -0 -0 -0 -0 -0 -0 -0 -0 -0 -0 -0 -0 -0 -0 -0 -0 -0 -0 -54 -159 -191 -299 -383 -397 -373 -339 -324 -324 -292 -235 -202 -173 -141 -129 -91 -38 -42 -42
-0 -0 -0 -0 -0 -0 -0 -0 -0 -0 -0 -0 -0 -0 -0 -0 -0 -0 -0 -0 -0 -0 -0 -0 -4 -180 -308 -392 -436 -438 -396 -370 -331 -336 -272 -215 -162 -93 -93 -91 -56 -35 -37 -40
-0 -0 -0 -0 -0 -0 -0 -0 -0 -0 -0 -0 -0 -0 -0 -0 -0 -0 -0 -0 -0 -0 -0 -72 -213 -295 -352 -453 -458 -434 -429 -403 -308 -254 -217 -196 -166 -120 -84 -58 -43 -37 -45 -36
-0 -0 -0 -0 -0 -0 -0 -0 -0 -0 -0 -0 -0 -0 -0 -0 -0 -0 -0 -0 -0 -0 -0 -163 -205 -303 -383 -430 -432 -417 -440 -308 -317 -208 -186 -165 -99 -91 -66 -60 -56 -31 -30 -58
-1 -1 -0 -0 -0 -0 -0 -0 -0 -0 -0 -0 -0 -0 -0 -0 -0 -0 -0 -0 -0 -0 -171 -179 -265 -355 -413 -429 -409 -428 -343 -300 -270 -209 -201 -205 -125 -148 -92 -47 -36 -26 -52 -56
-3 -0 -0 -0 -0 -0 -0 -0 -0 -0 -0 -0 -0 -0 -0 -0 -0 -0 -0 -0 -100 -183 -194 -231 -319 -368 -438 -423 -410 -393 -288 -250 -207 -195 -206 -170 -109 -37 -52 -43 -34 -16 -21 -19
-35 -0 -0 -0 -0 -0 -0 -0 -0 -0 -0 -0 -0 -0 -0 -0 -0 -0 -0 -0 -98 -113 -188 -260 -311 -393 -418 -398 -376 -314 -241 -211 -180 -204 -221 -165 -141 -122 -106 -85 -85 -20 -24 -23
-46 -30 -0 -0 -0 -0 -0 -0 -0 -0 -0 -0 -0 -0 -0 -0 -0 -0 -0 -0 -84 -148 -177 -255 -311 -364 -379 -376 -326 -251 -204 -203 -199 -219 -217 -137 -162 -128 -146 -65 -9 -11 -11 -37
-4 -25 -0 -0 -0 -0 -0 -0 -0 -0 -0 -0 -0 -0 -0 -0 -13 -0 -0 -0 -132 -202 -230 -256 -312 -349 -360 -324 -258 -204 -203 -232 -216 -255 -157 -154 -68 -108 -111 -45 -28 -9 -9 -16
-9 -2 -0 -0 -0 -42 -44 -30 -7 -0 -0 -0 -0 -0 -0 -0 -0 -0 -0 -0 -153 -193 -233 -260 -302 -343 -324 -274 -218 -197 -244 -252 -224 -161 -172 -120 -110 -95 -86 -59 -35 -38 -14 -35
-7 -0 -2 -0 -0 -0 -0 -0 -0 -0 -0 -0 -0 -0 -0 -0 -0 -0 -0 -116 -147 -194 -228 -263 -298 -314 -284 -248 -213 -216 -269 -241 -239 -134 -159 -94 -98 -45 -37 -85 -17 -8 -76 -62
-5 -0 -0 -0 -0 -1 -0 -0 -0 -0 -0 -0 -0 -0 -0 -9 -20 -36 -79 -113 -152 -185 -232 -255 -275 -278 -258 -240 -242 -265 -271 -250 -224 -121 -128 -149 -101 -67 -65 -59 -36 -12 -36 -44
-5 -0 -0 -0 -0 -0 -0 -0 -0 -0 -0 -0 -0 -0 -19 -34 -29 -48 -90 -111 -138 -154 -208 -234 -247 -252 -231 -247 -294 -0 -264 -283 -231 -99 -122 -178 -153 -70 -89 -49 -0 -71 -14 -82
-1 -0 -0 -0 -5 -0 -0 -0 -0 -0 -0 -0 -0 -19 -33 -25 -35 -31 -42 -56 -97 -155 -189 -210 -225 -221 -219 -263 -0 -0 -297 -307 -238 -107 -125 -108 -141 -7 -70 -43 -0 -19 -18 -17
-0 -0 -0 -1 -23 -0 -0 -0 -57 -87 -133 -107 -113 -23 -0 -109 -182 -213 -79 -84 -86 -115 -160 -180 -179 -183 -204 -76 -0 -0 -321 -347 -292 -105 -119 -134 -223 -9 -103 -84 -27 -28 -22 -23
-0 -0 -0 -1 -1 -0 -0 -2 -10 -80 -62 -105 -26 -11 -0 -41 -96 -0 -0 -11 -138 -98 -123 -139 -146 -162 -225 -0 -0 -0 -379 -391 -54 -160 -90 -116 -210 -228 -144 -131 -40 -28 -23 -16
-0 -2 -0 -0 -0 -0 -0 -0 -0 -110 -24 -81 -0 -14 -163 -0 -58 -0 -0 -0 -0 -100 -93 -106 -131 -160 -239 -0 -0 -0 -402 -200 -0 -263 -158 -131 -211 -168 -112 -154 -11 -0 -0 -13
-1 -0 -0 -0 -0 -0 -0 -0 -1 -95 -3 -0 -0 -0 -0 -42 -122 -15 -0 -0 -0 -0 -106 -100 -134 -147 -236 -0 -0 -0 -424 -0 -0 -277 -234 -181 -220 -232 -196 -128 -126 -0 -0 -5
-0 -0 -0 -0 -6 -1 -0 -0 -0 -0 -8 -3 -0 -0 -0 -0 -155 -223 -127 -0 -0 -0 -133 -114 -124 -166 -235 -0 -0 -0 -0 -0 -0 -269 -251 -193 -315 -345 -264 -223 -147 -0 -0 -6
-0 -0 -0 -0 -0 -0 -0 -0 -0 -2 -3 -0 -0 -0 -0 -0 -0 -20 -244 -153 -204 -183 -193 -165 -125 -149 -214 -0 -0 -0 -0 -0 -0 -321 -238 -256 -326 -347 -16 -258 -168 -205 -0 -0
-0 -0 -0 -0 -0 -1 -2 -1 -0 -0 -0 -0 -0 -0 -0 -0 -0 -0 -0 -0 -215 -176 -139 -157 -100 -157 -188 -176 -0 -0 -44 -0 -0 -364 -240 -229 -260 -304 -0 -297 -200 -255 -0 -0
-0 -3 -0 -0 -0 -0 -0 -0 -0 -0 -0 -0 -0 -0 -0 -0 -0 -0 -0 -0 -241 -234 -156 -101 -72 -144 -183 -222 -33 -0 -227 -0 -0 -229 -250 -198 -233 -287 -381 -0 -332 -280 -237 -0
-0 -0 -0 -0 -1 -1 -0 -0 -1 -0 -0 -0 -0 -0 -0 -0 -0 -0 -0 -0 -0 -301 -234 -137 -120 -87 -166 -212 -244 -270 -237 -0 -0 -26 -344 -256 -237 -255 -345 -0 -0 -0 -118 -339
Wind_Speed
35 39 46 41 36 36 39 43 47 45 43 46 46 46 54 49 40 39 34 30 18 13 16 23 19 21 15 13 12 8 4 3 2 2 2 1 2 5 6 7 6 7 6 9
37 45 38 41 39 42 48 51 50 44 38 41 41 43 47 44 35 24 22 22 17 20 22 18 19 17 13 14 12 7 6 2 2 2 3 3 4 5 4 5 4 4 6 9
41 44 39 43 43 41 43 45 45 48 40 48 45 47 50 49 48 38 26 17 20 18 15 14 18 15 10 9 10 8 7 3 3 4 5 6 7 6 6 7 5 5 7 10
44 44 44 44 45 40 47 37 41 43 38 47 36 51 47 46 40 28 22 24 31 25 16 13 16 8 6 8 7 8 5 2 4 5 5 6 5 9 8 7 7 6 8 9
48 39 37 44 48 40 51 38 44 40 43 47 43 38 50 21 21 17 21 19 17 16 15 15 11 6 4 5 6 5 4 4 5 6 6 7 9 11 9 10 10 10 9 9
46 39 43 46 43 45 44 42 42 44 45 50 43 28 49 27 28 19 28 27 12 12 12 9 3 0 4 5 5 4 4 5 6 8 7 8 7 12 11 11 12 10 10 8
40 42 43 44 48 44 41 42 43 43 44 43 32 33 26 18 12 11 14 14 10 9 9 2 5 2 0 1 3 4 5 7 7 9 9 10 10 11 11 11 12 13 12 10
40 44 38 34 44 44 43 42 43 42 40 41 35 35 28 32 43 17 14 11 9 8 1 7 7 5 2 2 5 5 7 7 7 9 10 10 10 10 11 11 12 13 12 11
35 40 36 42 40 41 48 51 44 48 44 39 34 40 50 39 40 38 17 12 10 7 6 10 9 6 4 6 7 9 8 8 9 9 9 10 11 12 12 12 13 12 12 12
27 44 34 39 37 41 44 43 44 45 50 49 38 40 41 39 40 23 15 6 2 8 10 10 8 6 6 8 8 10 9 10 10 9 10 10 11 12 12 12 13 13 13 13
28 35 39 36 35 36 39 50 45 42 44 42 45 43 38 33 18 11 4 2 9 11 11 10 7 6 9 8 10 10 10 11 10 10 10 11 12 13 13 13 12 13 13 14
28 32 42 42 40 39 41 48 46 45 43 42 39 41 27 31 10 4 3 4 11 14 10 9 7 9 9 8 10 10 10 11 11 11 12 12 13 14 14 14 13 13 14 15
22 26 35 35 31 33 34 35 41 41 46 46 46 45 38 27 20 15 9 4 11 12 10 9 10 9 8 8 11 10 12 12 12 12 13 14 15 15 15 15 14 14 14 15
25 26 30 35 35 30 37 39 35 33 45 44 47 43 37 37 25 20 16 7 16 13 12 10 9 10 9 10 11 11 13 14 13 14 14 14 15 16 15 16 16 15 15 14
20 27 31 35 39 35 37 40 41 41 43 41 44 36 33 26 25 17 7 12 17 13 11 12 12 11 10 12 13 14 15 15 14 15 14 15 16 17 17 16 16 16 16 15
22 24 26 31 36 35 37 40 42 43 46 44 46 36 20 12 3 1 8 13 16 11 11 13 12 13 12 14 15 16 16 15 14 16 15 16 16 17 17 18 17 17 16 16
27 25 23 25 17 19 32 40 42 42 44 43 43 26 19 14 7 5 7 10 12 10 13 13 14 13 13 15 16 17 16 16 14 16 16 17 17 17 17 18 18 17 17 17
24 26 23 24 24 25 22 25 27 33 38 36 41 28 23 8 4 3 6 7 10 9 11 12 13 11 13 16 16 16 17 15 15 17 17 18 17 17 18 18 17 18 19 19
19 21 20 22 26 22 23 15 20 21 18 13 21 23 24 15 5 4 9 7 11 12 11 9 11 11 14 16 17 16 17 15 17 18 18 18 18 18 19 18 19 19 20 20
21 20 20 19 20 22 18 20 18 21 19 12 10 21 10 29 16 12 11 9 8 11 10 12 12 13 15 16 17 16 17 17 19 20 19 20 18 19 19 19 19 20 20 19
16 20 22 21 20 15 15 19 17 22 25 13 9 12 7 10 13 11 9 7 7 8 11 12 12 14 16 18 17 16 18 18 20 20 20 18 18 20 20 21 22 23 23 22
8 16 12 16 20 21 14 13 16 17 15 13 9 5 9 7 9 9 10 9 9 10 10 10 10 12 15 19 17 16 19 20 21 20 19 17 19 20 21 22 24 24 25 26
12 11 12 9 12 13 13 7 13 16 8 8 7 10 9 12 10 11 12 12 9 11 14 11 8 11 13 19 17 15 21 21 21 20 18 18 19 21 21 22 24 25 26 28
17 18 15 14 11 13 14 15 17 18 15 13 13 13 14 14 15 15 16 15 14 15 17 17 14 10 13 18 17 15 21 21 22 20 19 19 19 20 22 24 25 26 27 28
22 22 23 22 20 19 18 20 22 20 17 15 16 17 19 18 18 20 19 19 19 19 18 18 15 9 14 19 17 15 18 21 21 21 19 19 18 19 22 24 26 26 27 28
25 22 21 23 26 24 25 24 24 18 17 17 17 18 20 20 23 22 22 23 22 23 23 24 19 14 16 19 18 18 18 20 20 21 21 18 20 20 21 23 25 24 24 25
Wind_Direction
257 252 248 239 250 261 266 264 269 272 273 274 276 281 275 277 287 289 296 299 288 286 300 309 300 303 316 321 326 329 325 338 4 54 107 117 319 338 341 336 324 329 332 337
256 249 248 258 259 258 260 264 268 274 275 275 277 279 280 281 288 254 266 290 258 277 290 297 307 306 308 314 327 335 329 338 347 67 44 15 350 345 343 327 333 348 347 344
256 257 258 255 256 257 257 260 266 269 275 267 275 281 279 276 279 291 294 273 295 299 290 286 303 306 295 299 320 321 330 358 24 75 35 24 17 7 354 356 346 355 355 351
262 260 258 257 253 256 258 262 265 268 271 269 278 279 279 280 243 287 287 294 295 296 285 283 301 291 298 306 327 322 346 23 37 69 47 27 19 10 15 5 11 7 7 0
253 261 260 257 255 256 258 263 262 266 267 269 272 281 247 288 255 287 299 297 276 257 264 280 282 284 288 320 321 343 30 40 44 59 61 31 21 9 18 23 21 21 14 14
258 263 261 260 262 258 259 259 262 262 265 266 268 274 246 232 233 291 296 295 269 266 287 294 295 245 292 319 336 15 37 55 63 37 56 31 34 14 24 26 23 27 23 24
261 259 261 259 258 259 256 252 256 256 255 259 267 272 237 297 293 268 286 287 275 287 303 176 152 212 105 333 44 50 71 70 67 34 45 26 28 23 24 21 14 14 23 37
263 260 260 262 253 253 252 249 246 250 253 260 265 265 272 275 253 286 274 268 269 294 282 167 156 152 130 85 85 80 88 72 64 50 32 25 28 28 28 33 24 22 37 53
270 263 272 266 264 249 247 247 251 254 262 264 264 268 256 236 240 278 291 293 322 341 126 138 137 140 123 102 97 103 90 73 73 60 42 47 48 40 35 37 24 35 47 55
277 268 273 266 267 257 249 250 248 246 250 256 261 264 269 272 278 283 280 278 55 105 110 117 126 126 109 107 102 102 91 88 80 64 55 62 59 52 42 40 31 44 57 55
287 271 270 271 256 254 250 243 246 253 247 252 258 260 259 281 302 301 272 209 141 136 131 128 123 128 115 105 105 101 95 90 79 69 78 70 60 50 43 45 44 46 53 78
293 282 267 265 260 258 258 249 243 245 246 246 260 256 265 280 306 302 235 138 142 140 131 128 126 129 117 108 107 102 95 93 88 76 83 72 67 57 53 48 45 54 67 87
308 285 276 266 255 254 254 252 244 249 247 244 247 248 251 281 284 287 297 206 149 142 135 127 124 131 121 110 109 99 103 98 97 95 78 74 70 68 64 58 55 61 73 91
302 287 272 258 255 264 252 250 249 249 242 241 242 251 253 267 272 281 275 163 149 145 140 132 130 131 119 112 106 104 108 107 101 103 84 83 64 68 70 62 64 67 76 85
299 279 263 260 259 259 253 248 246 247 243 243 238 243 247 270 271 277 220 156 147 149 138 132 133 128 118 114 111 114 115 114 102 106 91 80 77 79 78 73 65 65 71 81
263 270 263 262 252 251 246 246 248 247 244 245 237 238 254 270 299 137 152 145 146 151 142 135 132 130 120 118 118 118 117 114 102 110 97 95 83 95 87 79 77 71 67 82
241 268 267 272 258 254 249 238 241 239 241 239 233 235 246 233 257 247 167 160 163 159 144 139 136 130 120 120 119 120 117 113 97 112 102 102 89 97 88 81 78 72 78 89
209 232 257 246 219 233 234 238 247 241 239 246 241 219 220 233 218 320 286 220 181 189 158 145 136 125 120 120 120 113 115 110 105 119 112 110 101 86 92 82 81 84 88 97
175 222 236 217 210 226 223 237 234 236 225 266 207 204 235 207 175 282 277 265 238 209 168 159 139 124 119 121 122 114 117 113 123 124 122 115 106 96 91 85 92 101 103 99
183 213 214 221 211 209 228 253 242 220 204 239 221 198 248 219 220 241 266 262 258 234 193 150 138 127 123 122 124 118 121 119 129 135 119 123 108 101 94 91 97 105 104 94
221 210 214 214 217 230 280 252 233 203 216 252 232 207 237 209 226 246 266 277 264 256 232 153 140 132 128 127 127 123 127 129 135 127 124 114 103 106 101 96 104 113 115 107
265 218 227 238 215 215 274 241 210 248 231 255 205 253 234 258 246 254 267 277 267 263 251 209 147 130 127 131 130 126 134 134 136 126 118 104 107 105 100 99 108 113 119 121
254 248 255 251 236 243 290 259 264 281 281 269 244 259 272 262 272 259 262 263 282 276 255 247 173 138 129 135 134 131 139 137 136 126 114 109 110 111 108 102 105 110 121 121
286 300 258 257 272 241 275 301 309 313 302 284 269 276 275 275 274 276 277 278 282 275 261 248 243 150 134 136 137 134 140 138 138 131 124 117 113 112 117 117 120 117 120 126
320 307 281 262 274 276 276 294 288 285 290 298 282 273 280 276 269 267 270 270 267 269 271 255 249 163 142 138 138 136 140 141 138 136 128 125 120 120 124 133 137 134 137 133
329 328 300 277 282 275 274 284 287 285 276 279 286 279 282 276 271 277 273 270 269 266 265 251 264 155 154 143 139 140 143 143 140 138 139 130 131 128 130 130 144 164 146 148